200 serials | arkaos vj 1.6

Date Name Success Rate
2009-10-17 06:18:56 ArKaos NuVJ V1.5 FC1 MAC OSX INTEL 47%
2009-10-17 06:18:56 ArKaos VJ V3.5 FC4 57%
2009-10-17 06:18:56 ArKaos VJ V3.6.1 FC1-AiR 58%
2009-10-17 06:18:56 ArKaos VJ V3.6.1 FC2-AiR 54%
2009-10-22 23:27:23 ArKaos NuVJ V1.5 61%
2009-10-22 23:27:23 ArKaos VJ 3.5 90%
2009-10-22 23:27:25 Astroids 1.6 78%
2009-10-22 23:27:26 AutoSignal 1.6 0%
2009-10-22 23:44:49 Bejeweled 1.6 0%
2009-10-22 23:44:51 BuryBury 1.6 0%
2009-10-22 23:45:54 CompuChess 1.6 0%
2009-10-22 23:45:56 Counter Strike Stream 1.6 1.6 0%
2009-10-22 23:45:56 Counterstrike 1.6 0%
2009-10-22 23:45:56 CS 1.6 0%
2009-10-22 23:46:25 Deejaysystem Video VJ-II 1.0.0 79%
2009-10-22 23:46:25 Deejaysystem Video VJ-II 2.1.1 33%
2009-10-22 23:46:27 DLLspy 1.6 54%
2009-10-22 23:47:42 Eurobuchfuehrung 1.6 0%
2009-10-22 23:47:52 FleetNews 1.6 0%
2009-10-22 23:47:53 FolderView 1.6 0%
2009-10-22 23:47:59 Gadami 1.6 0%
2009-10-22 23:48:06 HandMine 1.6 0%
2009-10-22 23:48:14 ImageResizer 1.6 0%
2009-10-22 23:48:18 IsoBuster 1.6 0%
2009-10-22 23:48:24 JMPuzzles 1.6 0%
2009-10-22 23:48:30 Konfabulator 1.6 0%
2009-10-22 23:48:44 MacAstro 1.6 0%
2009-10-22 23:48:50 MindFinder 1.6 0%
2009-10-22 23:48:50 MMD Explorer 1.6 0%
2009-10-22 23:49:02 Nolimits_Coaster 1.6 0%
2009-10-22 23:49:02 Notesbrowser 1.6 0%
2009-10-22 23:49:13 OptionGrid 1.6 0%
2009-10-22 23:49:19 PassHat 1.6 0%
2009-10-22 23:49:21 PDF Extract TIFF 1.6 0%
2009-10-22 23:49:21 PDF2HTML 1.6 0%
2009-10-22 23:49:21 PDF2Word 1.6 0%
2009-10-22 23:49:21 Perfect Keylogger 1.6 0%
2009-10-22 23:49:27 Pterasaur VJ King 1.0 0%
2009-10-22 23:49:27 Purchase Order 1.6 R8 0%
2009-10-22 23:49:42 Regcure 1.6 20%
2009-10-22 23:49:42 RegCure V 1.6 37%
2009-10-22 23:49:53 Site Translator 1.6 0%
2009-10-22 23:49:55 SNetDownloader 1.6 0%
2009-10-22 23:49:55 Snow For Windows 1.6 0%
2009-10-22 23:49:58 Speeder Xp 1.6 53%
2009-10-22 23:49:58 SpeederXP 1.6 0%
2009-10-22 23:50:00 StopWatch 1.6 0%
2009-10-22 23:50:00 STUDVET 1.6 0%
2009-10-22 23:50:02 Super Video Splitter 1.6 0%
2009-10-22 23:50:02 SuperSprites 1.6 0%
2009-10-22 23:50:03 SWF Protect 1.6 64%
2009-10-22 23:50:09 TeraBit Tattoo 1.6 0%
2009-10-22 23:50:09 TextAloud MP3 1.6 0%
2009-10-22 23:50:10 ThumbMaker 1.6 0%
2009-10-22 23:50:26 Video Interactive Multipoint 1.6 0%
2009-10-22 23:50:28 ViveloInc 1.6 0%
2009-10-22 23:50:34 WEB Form Formatter 1.6 0%
2009-10-22 23:50:35 WINAso DiskCleaner 1.6 0%
2009-10-22 23:50:37 WinPresenter 1.6 0%
2009-10-22 23:50:37 WinReminders 2005 1.6 0%
2009-10-22 23:50:39 WWAYM Dynamix VST 1.6 0%
2011-09-08 09:57:37 Access Animation 1.6 0%
2011-09-08 09:59:20 ActionLine 1.6 0%
2011-09-08 09:59:35 ActiveLocker 1.6 0%
2011-09-08 10:02:16 Agent 1.6 0%
2011-09-08 10:02:19 Agent Ransack 1.6 0%
2011-09-08 10:06:19 Always Online 1.6 0%
2011-09-08 10:06:39 Anagrammer 1.6 0%
2011-09-08 10:06:56 Animated GIF Editor 1.6 0%
2011-09-08 10:08:30 ArKaos VJ v3.0 84%
2011-09-08 10:09:11 Asteroids 1.6 0%
2011-09-08 10:09:13 Astroids 1.6 0%
2011-09-08 10:09:13 Astronomica 1.6 0%
2011-09-08 10:11:44 Auto-Audit 1.6 0%
2011-09-08 10:12:37 AutoSigna 1.6 0%
2011-09-08 10:12:37 AutoSignal 1.6 0%
2011-09-08 10:18:34 Backup32 1.6 0%
2011-09-08 10:19:36 Betting Genius 1.6 0%
2011-09-08 10:21:15 BoxIP 1.6 0%
2011-09-08 10:22:06 BuryBury 1.6 0%
2011-09-08 10:23:53 Car Organizer Deluxe 1.6 0%
2011-09-08 10:24:29 CD Label Designer 1.6 0%
2011-09-08 10:25:06 CDWinder 1.6 0%
2011-09-08 10:25:36 Check Favorites 1.6 0%
2011-09-08 10:26:03 ChordBook 1.6 0%
2011-09-08 10:26:06 Chronograph 1.6 0%
2011-09-08 10:27:27 CMonitor 1.6 0%
2011-09-08 10:28:03 ColorSafe 1.6 0%
2011-09-08 10:28:13 Commotion 1.6 0%
2011-09-08 10:28:32 ConceptDraw 1.6 0%
2011-09-08 10:28:32 ConcertWave 1.6 0%
2011-09-08 10:31:45 Counter Strike 1.6 ohne Steam 1.6 52%
2011-09-08 10:31:45 counter strike stream 1.6 1.6 0%
2011-09-08 10:31:45 counterstrike 1.6 0%
2011-09-08 10:32:35 Crystallographica 1.6 67%
2011-09-08 10:41:53 DaanCalendar 1.6 0%
2011-09-08 10:43:29 Die Redaktion 1.6 0%
2011-09-08 10:43:40 Diphone 1.6 0%
2011-09-08 10:43:42 DirectISO 1.6 0%
2011-09-08 10:43:46 Dirt Bike 3D 1.6 0%
2011-09-08 10:43:53 Disk Chief 1.6 0%
2011-09-08 10:44:11 DizIt 1.6 0%
2011-09-08 10:44:11 DizIt Pro 1.6 0%
2011-09-08 10:44:13 DLLspy 1.6 0%
2011-09-08 10:44:24 DocMan 1.6 0%
2011-09-08 10:48:48 EditDV 1.6 0%
2011-09-08 10:50:07 Euraconf 1.6 0%
2011-09-08 10:50:08 Eurobuchfuehrung 1.6 0%
2011-09-08 10:50:09 EVEdit 1.6 0%
2011-09-08 10:50:50 EyeBatch 1.6 0%
2011-09-08 10:53:43 Faktura 1.6 0%
2011-09-08 10:54:12 FeatherGIF 1.6 0%
2011-09-08 10:55:37 FleetNews 1.6 0%
2011-09-08 10:56:02 FolderView 1.6 0%
2011-09-08 10:56:13 FontSubst 1.6 0%
2011-09-08 10:56:52 Fracas 1.6 0%
2011-09-08 11:03:13 gordon 1.6 57%
2011-09-08 11:03:13 GoScreen 1.6 0%
2011-09-08 11:03:16 GPSDash 1.6 0%
2011-09-08 11:03:16 GPSdb 1.6 0%
2011-09-08 11:03:40 Grossmeister 1.6 0%
2011-09-08 11:05:39 habbohote 1.6 0%
2011-09-08 11:05:47 HandMine 1.6 0%
2011-09-08 11:05:56 HardCopy 1.6 0%
2011-09-08 11:06:23 Helium 1.6 0%
2011-09-08 11:09:29 Hotelstar 1.6 0%
2011-09-08 11:13:43 IconPainter 1.6 0%
2011-09-08 11:14:26 Image2PDF 1.6 0%
2011-09-08 11:14:26 ImageBrowser 1.6 0%
2011-09-08 11:17:08 IPSearch 1.6 0%
2011-09-08 11:20:14 JMPuzzles 1.6 0%
2011-09-08 11:20:18 JoQmory 1.6 0%
2011-09-08 11:21:47 Kineticon 1.6 0%
2011-09-08 11:21:58 Konfabulator 1.6 0%
2011-09-08 11:24:58 LANScan 1.6 0%
2011-09-08 11:25:03 Lattice 1.6 0%
2011-09-08 11:27:15 Loopy 1.6 0%
2011-09-08 11:27:31 LudoBet 1.6 0%
2011-09-08 11:27:46 MacAstro 1.6 0%
2011-09-08 11:28:09 MacSki 1.6 0%
2011-09-08 11:28:51 Mail-It 1.6 0%
2011-09-08 11:29:02 MailSweep 1.6 0%
2011-09-08 11:29:10 MakeMS 1.6 0%
2011-09-08 11:29:58 Mazaika 1.6 0%
2011-09-08 11:32:35 MindFinder 1.6 0%
2011-09-08 11:32:52 MinuteMan 1.6 0%
2011-09-08 11:33:39 MorningPaper 1.6 0%
2011-09-08 11:41:53 Netoscope 1.6 0%
2011-09-08 12:27:12 OptionGrid 1.6 0%
2011-09-08 12:28:05 PanoramaStudio 1.6 52%
2011-09-08 12:28:27 PassHat 1.6 0%
2011-09-08 12:29:31 PDF2HTML 1.6 0%
2011-09-08 12:29:31 PDF2Word 1.6 0%
2011-09-08 12:30:45 PhotoChecker 1.6 0%
2011-09-08 12:33:35 PicStation32 1.6 0%
2011-09-08 12:33:35 PictSort 1.6 0%
2011-09-08 12:35:52 PowerDVD 1.6 0%
2011-09-08 12:37:02 QuakeFinder 1.6 0%
2011-09-08 12:37:28 QuickConference 1.6 0%
2011-09-08 12:37:36 QuickMP3 1.6 0%
2011-09-08 12:37:36 QuickNailer 1.6 0%
2011-09-08 12:37:49 QWallet 1.6 0%
2011-09-08 12:39:02 Pterasaur VJ King 1.0 0%
2011-09-08 12:39:02 Pterasaur VJ King v1.0 0%
2011-09-08 12:39:07 PushPage 1.6 0%
2011-09-08 12:41:12 ReGet 1.6 0%
2011-09-08 12:43:56 Roesselsprung 1.6 0%
2011-09-08 12:45:49 Screen It! 1.6 0%
2011-09-08 12:47:26 ShowMe 1.6 0%
2011-09-08 12:48:57 SmartBackup 1.6 0%
2011-09-08 12:49:05 SmartSound 1.6 0%
2011-09-08 12:49:18 SnapDialer 1.6 0%
2011-09-08 12:49:21 SnapSync 1.6 0%
2011-09-08 12:50:11 SONIC 1.6 0%
2011-09-08 12:50:23 SoundEdit16 1.6 0%
2011-09-08 12:50:42 SpamButcher 1.6 0%
2011-09-08 12:51:40 Talisman 1.6 0%
2011-09-08 12:52:33 TestTrack 1.6 0%
2011-09-08 12:53:01 THE BAT! 1.6 0%
2011-09-08 12:53:51 ThumbMaker 1.6 0%
2011-09-08 12:54:00 Tickle 1.6 0%
2011-09-08 12:55:18 Transmit 1.6 0%
2011-09-08 12:55:20 TranxBDM 1.6 0%
2011-09-08 12:58:38 Steam 1.6 0%
2011-09-08 12:58:56 StopWatch 1.6 60%
2011-09-08 12:59:11 Studvet 1.6 0%
2011-09-08 12:59:17 Style 1.6 0%
2011-09-08 12:59:57 SuperCleaner 1.6 0%
2011-09-08 13:00:02 SuperList 1.6 0%
2011-09-08 13:00:08 SuperSprites 1.6 0%
2011-09-08 13:08:41 Universe 1.6 0%
2011-09-08 13:15:37 Warkanoid 1.6 0%
2011-09-08 13:15:50 Wcode 1.6 0%
2011-09-08 13:16:46 WebScanner 1.6 0%
2011-09-08 13:17:51 WinCD 1.6 0%
2011-09-08 13:17:55 WinCron 1.6 0%
2011-09-08 13:17:55 WinD 1.6 0%
2011-09-08 13:19:06 WinMaster 1.6 0%
2011-09-08 13:19:22 WinPresenter 1.6 0%
2012-12-12 02:17:28 Arkaos 1.6.5 46%